TimePDT,TemperatureF,Dew PointF,Humidity,Sea Level PressureIn,VisibilityMPH,Wind Direction,Wind SpeedMPH,Gust SpeedMPH,PrecipitationIn,Events,Conditions,WindDirDegrees,DateUTC
12:53 AM,41.0,18.0,40,30.16,10.0,SSE,11.5,-,N/A,,Clear,150,2012-10-07 07:53:00
1:53 AM,37.9,18.0,45,30.16,10.0,ESE,8.1,-,N/A,,Clear,120,2012-10-07 08:53:00
2:53 AM,37.0,18.0,46,30.16,10.0,SSE,8.1,-,N/A,,Clear,150,2012-10-07 09:53:00
3:53 AM,37.9,18.0,45,30.15,10.0,SE,8.1,-,N/A,,Clear,140,2012-10-07 10:53:00
4:53 AM,36.0,18.0,48,30.15,10.0,SE,8.1,-,N/A,,Clear,140,2012-10-07 11:53:00
5:53 AM,36.0,18.0,48,30.15,10.0,SSE,8.1,-,N/A,,Clear,150,2012-10-07 12:53:00
6:53 AM,33.1,18.0,54,30.17,10.0,SE,6.9,-,N/A,,Clear,130,2012-10-07 13:53:00
7:53 AM,37.0,18.0,46,30.16,9.0,ESE,4.6,-,N/A,,Clear,110,2012-10-07 14:53:00
8:53 AM,44.1,19.9,38,30.16,9.0,SE,4.6,-,N/A,,Clear,130,2012-10-07 15:53:00
9:53 AM,48.0,19.0,32,30.16,9.0,Calm,Calm,-,N/A,,Clear,0,2012-10-07 16:53:00
10:53 AM,55.0,23.0,29,30.14,9.0,NW,6.9,-,N/A,,Clear,310,2012-10-07 17:53:00
11:53 AM,57.9,21.9,25,30.12,10.0,NW,5.8,-,N/A,,Clear,310,2012-10-07 18:53:00
12:53 PM,61.0,21.0,21,30.09,9.0,Variable,4.6,-,N/A,,Clear,0,2012-10-07 19:53:00
1:53 PM,64.0,19.0,18,30.07,8.0,Variable,4.6,-,N/A,,Clear,0,2012-10-07 20:53:00
2:53 PM,66.9,18.0,15,30.04,9.0,Calm,Calm,-,N/A,,Clear,0,2012-10-07 21:53:00
3:53 PM,68.0,19.0,15,30.01,8.0,WNW,3.5,-,N/A,,Clear,300,2012-10-07 22:53:00
4:53 PM,68.0,19.4,16,30.01,9.0,WNW,4.6,-,N/A,,Clear,300,2012-10-07 23:53:00
5:53 PM,63.0,23.0,22,29.99,10.0,WNW,5.8,-,N/A,,Clear,290,2012-10-08 00:53:00
6:53 PM,57.0,23.0,27,29.98,10.0,Calm,Calm,-,N/A,,Clear,0,2012-10-08 01:53:00
7:53 PM,54.0,23.0,30,29.98,10.0,Calm,Calm,-,N/A,,Clear,0,2012-10-08 02:53:00
8:53 PM,51.1,23.0,33,29.98,10.0,SE,4.6,-,N/A,,Clear,130,2012-10-08 03:53:00
9:53 PM,44.1,19.0,37,29.97,10.0,SE,5.8,-,N/A,,Clear,130,2012-10-08 04:53:00
10:53 PM,43.0,19.9,40,29.96,10.0,ESE,5.8,-,N/A,,Clear,120,2012-10-08 05:53:00
11:53 PM,45.0,19.9,37,29.95,10.0,SSE,6.9,-,N/A,,Clear,150,2012-10-08 06:53:00